QPF
0.04 0.02 0.01 0.00 0.00 0.00 0.01 0.01 0.01 0.00 0.00 0.00 0.00 0.02 0.02 0.01 0.02 0.03 0.02 0.01 0.00 0.00 0.00 0.00 0.00 0.00 0.00 0.00 0.00 0.00 0.00 0.00 0.00 0.00 0.00 0.00 0.00 0.00 0.00 0.00 0.00 0.00 0.00 0.00
0.16 0.18 0.10 0.04 0.01 0.01 0.05 0.03 0.03 0.01 0.00 0.00 0.00 0.00 0.02 0.03 0.05 0.05 0.02 0.01 0.01 0.00 0.00 0.00 0.00 0.00 0.00 0.00 0.00 0.00 0.00 0.00 0.00 0.00 0.00 0.00 0.00 0.00 0.00 0.00 0.00 0.00 0.00 0.00
0.07 0.12 0.14 0.06 0.01 0.01 0.02 0.02 0.02 0.02 0.01 0.00 0.00 0.00 0.00 0.01 0.02 0.02 0.01 0.00 0.00 0.00 0.00 0.00 0.00 0.00 0.00 0.00 0.00 0.00 0.00 0.00 0.00 0.00 0.00 0.00 0.00 0.00 0.00 0.00 0.00 0.00 0.00 0.00
0.01 0.01 0.07 0.04 0.00 0.00 0.00 0.00 0.00 0.00 0.00 0.00 0.00 0.00 0.00 0.00 0.00 0.00 0.01 0.01 0.01 0.00 0.00 0.00 0.00 0.00 0.00 0.00 0.00 0.00 0.00 0.00 0.00 0.00 0.00 0.00 0.00 0.00 0.00 0.00 0.00 0.00 0.00 0.00
0.00 0.00 0.00 0.00 0.00 0.00 0.00 0.00 0.00 0.00 0.00 0.00 0.00 0.00 0.00 0.00 0.00 0.00 0.01 0.01 0.01 0.01 0.00 0.00 0.00 0.00 0.00 0.00 0.00 0.00 0.00 0.00 0.00 0.00 0.00 0.00 0.00 0.00 0.00 0.00 0.00 0.00 0.00 0.00
0.00 0.00 0.00 0.00 0.00 0.00 0.00 0.00 0.00 0.00 0.00 0.00 0.00 0.00 0.00 0.00 0.00 0.01 0.01 0.01 0.02 0.01 0.00 0.00 0.00 0.00 0.00 0.00 0.00 0.00 0.00 0.00 0.00 0.00 0.00 0.00 0.00 0.00 0.00 0.00 0.00 0.00 0.00 0.00
0.00 0.01 0.00 0.00 0.00 0.00 0.00 0.00 0.00 0.00 0.00 0.00 0.00 0.00 0.00 0.00 0.00 0.01 0.00 0.00 0.00 0.00 0.00 0.00 0.00 0.00 0.00 0.00 0.00 0.00 0.00 0.00 0.00 0.00 0.00 0.00 0.00 0.00 0.00 0.00 0.00 0.00 0.00 0.00
0.01 0.03 0.01 0.00 0.00 0.00 0.00 0.00 0.00 0.00 0.00 0.00 0.00 0.00 0.00 0.00 0.00 0.00 0.00 0.00 0.00 0.00 0.00 0.00 0.00 0.00 0.00 0.00 0.00 0.00 0.00 0.00 0.00 0.00 0.00 0.00 0.00 0.00 0.00 0.00 0.00 0.00 0.00 0.00
0.00 0.02 0.00 0.00 0.00 0.00 0.00 0.00 0.00 0.00 0.00 0.00 0.00 0.00 0.00 0.00 0.00 0.00 0.00 0.00 0.00 0.00 0.00 0.00 0.00 0.00 0.00 0.00 0.00 0.00 0.00 0.00 0.00 0.00 0.00 0.00 0.00 0.00 0.00 0.00 0.00 0.00 0.00 0.00
0.00 0.00 0.00 0.00 0.00 0.00 0.00 0.00 0.00 0.00 0.00 0.00 0.00 0.00 0.00 0.00 0.00 0.00 0.00 0.00 0.00 0.00 0.00 0.01 0.01 0.00 0.00 0.00 0.00 0.00 0.00 0.00 0.00 0.00 0.00 0.00 0.00 0.00 0.00 0.00 0.00 0.00 0.00 0.00
0.00 0.00 0.00 0.00 0.00 0.01 0.02 0.01 0.00 0.00 0.00 0.00 0.00 0.00 0.00 0.00 0.00 0.00 0.00 0.00 0.00 0.00 0.00 0.00 0.00 0.00 0.00 0.00 0.00 0.00 0.00 0.00 0.00 0.00 0.00 0.00 0.00 0.00 0.00 0.00 0.00 0.00 0.00 0.00
0.00 0.00 0.00 0.00 0.00 0.00 0.00 0.00 0.00 0.00 0.00 0.00 0.00 0.00 0.00 0.00 0.00 0.00 0.00 0.00 0.00 0.00 0.00 0.00 0.00 0.00 0.00 0.00 0.00 0.00 0.00 0.00 0.00 0.00 0.00 0.00 0.00 0.00 0.00 0.00 0.00 0.00 0.00 0.00
0.00 0.00 0.00 0.00 0.00 0.00 0.00 0.00 0.00 0.00 0.00 0.00 0.00 0.00 0.00 0.00 0.00 0.00 0.00 0.00 0.00 0.00 0.00 0.00 0.00 0.00 0.00 0.00 0.00 0.00 0.00 0.00 0.00 0.00 0.00 0.00 0.00 0.00 0.00 0.00 0.00 0.00 0.00 0.00
0.00 0.00 0.00 0.00 0.00 0.00 0.00 0.00 0.00 0.00 0.00 0.00 0.00 0.00 0.00 0.00 0.00 0.00 0.00 0.00 0.00 0.00 0.00 0.00 0.00 0.00 0.00 0.00 0.00 0.00 0.00 0.00 0.00 0.00 0.00 0.00 0.00 0.00 0.00 0.00 0.00 0.00 0.00 0.00
0.01 0.00 0.00 0.00 0.00 0.00 0.00 0.00 0.00 0.00 0.00 0.00 0.00 0.00 0.00 0.00 0.00 0.01 0.01 0.01 0.00 0.00 0.00 0.00 0.00 0.00 0.00 0.00 0.00 0.00 0.00 0.00 0.00 0.00 0.00 0.00 0.00 0.00 0.00 0.00 0.00 0.00 0.00 0.00
0.01 0.02 0.01 0.00 0.00 0.00 0.00 0.00 0.00 0.00 0.00 0.00 0.00 0.00 0.00 0.01 0.01 0.01 0.02 0.03 0.01 0.00 0.00 0.00 0.00 0.00 0.00 0.00 0.00 0.00 0.00 0.00 0.00 0.00 0.00 0.00 0.00 0.00 0.00 0.00 0.00 0.00 0.00 0.00
0.01 0.01 0.00 0.00 0.00 0.00 0.00 0.00 0.00 0.00 0.00 0.00 0.00 0.00 0.00 0.01 0.01 0.02 0.04 0.05 0.03 0.02 0.01 0.00 0.00 0.00 0.00 0.00 0.00 0.00 0.00 0.00 0.00 0.00 0.00 0.00 0.00 0.00 0.00 0.00 0.00 0.00 0.00 0.00
0.00 0.00 0.00 0.00 0.00 0.00 0.00 0.00 0.00 0.00 0.00 0.00 0.00 0.00 0.00 0.00 0.01 0.02 0.03 0.05 0.07 0.06 0.05 0.03 0.00 0.00 0.00 0.00 0.00 0.00 0.00 0.00 0.00 0.00 0.00 0.00 0.00 0.00 0.00 0.00 0.00 0.00 0.00 0.00
0.00 0.00 0.00 0.00 0.00 0.00 0.00 0.00 0.00 0.00 0.00 0.00 0.00 0.00 0.00 0.00 0.00 0.01 0.03 0.04 0.03 0.03 0.04 0.03 0.01 0.00 0.00 0.00 0.00 0.00 0.00 0.00 0.00 0.00 0.00 0.00 0.00 0.00 0.00 0.00 0.00 0.00 0.00 0.00
0.00 0.00 0.00 0.00 0.00 0.00 0.00 0.00 0.00 0.00 0.00 0.00 0.00 0.00 0.00 0.00 0.01 0.02 0.01 0.02 0.02 0.02 0.01 0.01 0.00 0.00 0.00 0.00 0.00 0.00 0.00 0.00 0.00 0.00 0.00 0.00 0.00 0.00 0.00 0.00 0.00 0.00 0.00 0.00
0.00 0.00 0.00 0.00 0.00 0.00 0.00 0.00 0.00 0.00 0.00 0.00 0.00 0.00 0.00 0.00 0.01 0.01 0.01 0.02 0.03 0.02 0.00 0.00 0.00 0.00 0.00 0.00 0.00 0.00 0.00 0.00 0.00 0.00 0.00 0.00 0.00 0.00 0.00 0.00 0.00 0.00 0.00 0.00
0.00 0.00 0.00 0.00 0.00 0.00 0.00 0.00 0.00 0.00 0.00 0.00 0.00 0.00 0.00 0.01 0.01 0.02 0.01 0.01 0.04 0.01 0.00 0.00 0.00 0.00 0.00 0.00 0.00 0.00 0.00 0.00 0.00 0.00 0.00 0.00 0.00 0.00 0.00 0.00 0.00 0.00 0.00 0.00
0.00 0.00 0.00 0.00 0.00 0.00 0.00 0.00 0.00 0.00 0.00 0.00 0.00 0.00 0.00 0.00 0.00 0.00 0.01 0.02 0.02 0.00 0.00 0.00 0.00 0.00 0.00 0.00 0.00 0.00 0.00 0.00 0.00 0.00 0.00 0.00 0.00 0.00 0.00 0.00 0.00 0.00 0.00 0.00
0.00 0.00 0.00 0.00 0.00 0.00 0.00 0.00 0.00 0.00 0.00 0.00 0.00 0.00 0.00 0.00 0.01 0.00 0.00 0.01 0.00 0.00 0.00 0.00 0.00 0.00 0.00 0.00 0.00 0.00 0.00 0.00 0.00 0.00 0.00 0.00 0.00 0.00 0.00 0.00 0.00 0.00 0.00 0.00
0.00 0.00 0.00 0.00 0.00 0.00 0.00 0.00 0.00 0.00 0.00 0.00 0.00 0.00 0.00 0.00 0.00 0.00 0.00 0.00 0.00 0.00 0.00 0.00 0.00 0.00 0.00 0.00 0.00 0.00 0.00 0.00 0.00 0.00 0.00 0.00 0.00 0.00 0.00 0.00 0.00 0.00 0.00 0.00
0.00 0.00 0.00 0.00 0.00 0.00 0.00 0.00 0.00 0.00 0.00 0.00 0.00 0.00 0.00 0.00 0.00 0.00 0.00 0.00 0.00 0.00 0.00 0.00 0.00 0.00 0.00 0.00 0.00 0.00 0.00 0.00 0.00 0.00 0.00 0.00 0.00 0.00 0.00 0.00 0.00 0.00 0.00 0.00
0.00 0.00 0.00 0.00 0.00 0.00 0.00 0.00 0.00 0.00 0.00 0.00 0.00 0.00 0.00 0.00 0.00 0.00 0.00 0.00 0.00 0.00 0.00 0.00 0.00 0.00 0.00 0.00 0.00 0.00 0.00 0.00 0.00 0.00 0.00 0.00 0.00 0.00 0.00 0.00 0.00 0.00 0.00 0.00
MSLP
1010.90 1010.40 1009.35 1007.93 1006.95 1006.51 1006.59 1007.09 1007.40 1007.23 1007.89 1008.24 1008.72 1009.08 1009.71 1010.45 1011.63 1012.71 1013.78 1014.93 1015.48 1016.38 1017.86 1018.73 1019.61 1020.49 1021.36 1021.77 1022.17 1022.57 1023.47 1024.46 1025.18 1025.32 1025.50 1025.94 1026.25 1026.18 1026.71 1026.89 1027.07 1026.87 1026.70 1026.47
1012.08 1011.32 1011.13 1010.06 1009.22 1008.89 1008.67 1008.57 1008.30 1008.26 1008.30 1007.84 1007.83 1008.73 1009.23 1010.35 1011.56 1012.33 1013.00 1012.84 1014.06 1015.90 1016.95 1017.81 1018.82 1020.06 1021.10 1021.40 1022.20 1022.68 1023.67 1024.78 1025.45 1025.50 1025.90 1026.27 1026.60 1026.88 1027.48 1027.63 1027.49 1027.42 1027.35 1027.08
1011.95 1011.96 1011.62 1010.71 1009.31 1008.92 1008.53 1008.60 1008.34 1008.06 1007.52 1007.27 1007.30 1007.63 1008.12 1008.92 1009.37 1010.14 1010.38 1012.15 1013.30 1014.25 1015.76 1016.92 1018.31 1019.54 1020.53 1021.16 1022.20 1023.20 1024.23 1025.16 1025.63 1025.72 1026.19 1026.56 1026.90 1027.63 1028.20 1028.24 1028.20 1028.21 1028.09 1027.81
1012.46 1011.70 1011.08 1009.06 1007.93 1007.95 1007.63 1007.65 1007.35 1006.91 1006.69 1006.88 1006.88 1006.83 1007.20 1007.66 1008.04 1008.21 1008.83 1009.48 1011.79 1013.86 1015.73 1016.99 1017.66 1019.07 1020.36 1021.17 1022.22 1023.18 1024.49 1025.28 1025.63 1026.00 1026.38 1026.86 1027.47 1028.30 1028.63 1028.80 1028.87 1028.89 1028.79 1028.53
1012.28 1011.92 1010.07 1008.63 1007.69 1007.79 1007.47 1007.17 1007.06 1006.60 1006.78 1006.47 1006.96 1007.49 1008.19 1008.59 1008.03 1007.65 1008.29 1009.46 1011.54 1012.94 1014.63 1016.45 1017.70 1018.76 1020.31 1021.37 1022.29 1023.43 1024.64 1025.64 1025.73 1025.96 1026.48 1027.08 1028.13 1028.73 1028.94 1029.24 1029.55 1029.55 1029.56 1029.22
1012.08 1011.63 1010.42 1008.64 1007.75 1007.48 1007.32 1007.31 1006.43 1006.70 1006.85 1006.81 1007.65 1008.64 1009.22 1009.49 1009.44 1008.88 1009.62 1010.45 1011.88 1013.76 1015.47 1016.78 1017.86 1018.92 1020.42 1021.37 1022.42 1023.85 1024.89 1025.62 1025.69 1026.04 1026.68 1027.47 1028.27 1028.87 1029.24 1029.62 1030.02 1030.14 1030.17 1029.80
1012.15 1011.87 1010.21 1008.00 1007.36 1007.20 1007.74 1008.07 1007.18 1006.83 1007.50 1007.94 1009.07 1009.98 1010.48 1010.91 1011.15 1011.15 1011.02 1011.78 1013.10 1014.30 1015.61 1016.87 1017.84 1019.14 1020.36 1021.37 1022.91 1024.02 1024.97 1025.47 1025.58 1026.16 1026.79 1027.51 1028.12 1028.65 1029.34 1030.04 1030.39 1030.68 1030.71 1030.50
1012.01 1011.16 1009.68 1007.52 1006.95 1006.96 1007.24 1006.72 1006.90 1007.64 1008.29 1008.81 1010.08 1010.83 1011.60 1012.21 1012.66 1012.70 1012.76 1013.49 1014.38 1015.11 1016.26 1017.44 1018.54 1019.41 1020.28 1021.68 1023.12 1024.15 1024.71 1025.06 1025.66 1026.33 1027.01 1027.67 1028.01 1028.62 1029.34 1030.03 1030.74 1031.22 1031.26 1031.10
1010.43 1009.38 1008.02 1007.14 1006.83 1006.61 1006.76 1006.96 1007.13 1007.89 1008.79 1009.90 1010.81 1011.64 1012.47 1013.07 1013.37 1013.77 1014.35 1014.91 1015.32 1015.64 1016.71 1018.19 1018.97 1019.35 1020.57 1022.12 1023.11 1023.98 1024.42 1025.17 1025.73 1026.57 1027.28 1027.80 1028.22 1028.79 1029.44 1030.15 1030.83 1031.44 1031.64 1031.62
1009.95 1009.04 1008.15 1007.46 1006.88 1006.73 1006.54 1006.81 1007.42 1008.12 1009.09 1010.16 1011.12 1012.34 1012.95 1013.57 1014.30 1014.80 1015.01 1015.22 1015.88 1016.38 1017.36 1018.34 1019.15 1019.96 1020.84 1022.16 1023.12 1023.74 1024.29 1025.07 1025.87 1026.88 1027.59 1028.04 1028.52 1028.97 1029.50 1030.10 1030.66 1031.22 1031.56 1031.66
1009.33 1008.60 1008.14 1007.46 1007.14 1007.07 1006.86 1007.27 1007.89 1009.00 1009.62 1010.33 1011.53 1012.60 1013.16 1013.75 1014.33 1014.95 1015.58 1015.91 1016.21 1016.72 1017.63 1018.58 1019.45 1020.27 1021.19 1022.09 1022.81 1023.59 1024.34 1025.09 1026.07 1026.99 1027.65 1028.36 1028.87 1029.20 1029.63 1030.04 1030.26 1030.85 1031.29 1031.27
1008.44 1007.79 1007.79 1007.50 1007.17 1007.23 1006.98 1007.30 1008.29 1009.04 1010.36 1011.07 1011.66 1012.39 1013.31 1013.80 1014.50 1015.12 1015.68 1016.08 1016.64 1017.26 1017.92 1018.78 1019.72 1020.59 1021.35 1022.00 1022.64 1023.41 1024.30 1025.28 1026.16 1027.02 1027.86 1028.56 1028.98 1029.53 1029.73 1029.99 1030.26 1030.55 1030.78 1030.87
1007.41 1007.18 1007.20 1007.04 1006.95 1006.77 1007.17 1007.42 1008.56 1009.54 1010.28 1010.99 1011.91 1012.56 1013.49 1014.07 1014.59 1015.13 1015.81 1016.27 1016.78 1017.40 1018.15 1018.93 1019.80 1020.53 1021.14 1021.89 1022.56 1023.37 1024.16 1025.18 1026.17 1026.99 1027.86 1028.56 1029.15 1029.64 1029.90 1030.17 1030.24 1030.41 1030.44 1030.40
1006.80 1007.02 1007.29 1007.11 1006.96 1006.73 1006.88 1007.94 1009.05 1010.03 1010.83 1011.59 1012.28 1012.87 1013.58 1014.14 1014.77 1015.37 1015.90 1016.42 1017.11 1017.88 1018.56 1019.17 1019.97 1020.66 1021.03 1021.82 1022.60 1023.44 1024.20 1025.00 1025.92 1026.86 1027.65 1028.41 1029.14 1029.76 1030.17 1030.40 1030.87 1031.37 1031.15 1031.15
1006.40 1006.37 1006.53 1006.95 1007.13 1007.13 1007.61 1008.69 1009.74 1010.73 1011.47 1012.09 1012.59 1013.15 1013.76 1014.38 1014.97 1015.61 1016.29 1016.95 1017.71 1018.43 1019.09 1019.54 1020.27 1021.13 1021.23 1021.89 1022.77 1023.59 1024.28 1025.12 1025.83 1026.64 1027.42 1028.12 1028.85 1029.57 1030.20 1030.82 1031.34 1031.94 1032.24 1032.20
1006.06 1006.27 1006.90 1007.47 1007.65 1007.80 1008.56 1009.57 1010.19 1011.12 1011.74 1012.39 1012.89 1013.50 1014.10 1014.75 1015.39 1016.06 1016.76 1017.46 1018.08 1018.90 1019.43 1019.96 1020.59 1021.34 1021.64 1022.15 1022.97 1023.75 1024.37 1025.05 1025.73 1026.52 1027.31 1027.99 1028.57 1029.26 1030.08 1030.80 1031.47 1031.98 1032.46 1032.64
1006.57 1007.12 1007.47 1007.89 1008.25 1008.57 1009.22 1010.00 1010.42 1011.10 1011.98 1012.56 1013.13 1013.95 1014.69 1015.36 1016.10 1016.80 1017.44 1017.99 1018.54 1019.26 1019.86 1020.23 1021.09 1021.82 1022.20 1022.58 1023.01 1023.90 1024.62 1025.34 1025.84 1026.61 1027.26 1027.81 1028.39 1029.02 1029.71 1030.51 1031.33 1031.97 1032.44 1032.44
1006.56 1006.85 1007.40 1007.88 1008.56 1009.11 1009.83 1010.38 1010.88 1011.46 1011.99 1012.67 1013.59 1014.43 1015.23 1015.96 1016.70 1017.47 1018.09 1018.70 1019.33 1019.98 1020.45 1020.81 1021.46 1022.14 1022.61 1022.92 1023.29 1023.97 1024.64 1025.31 1025.96 1026.61 1027.30 1027.91 1028.47 1029.03 1029.72 1030.45 1031.22 1031.87 1032.36 1032.71
1007.27 1007.59 1008.06 1008.59 1009.07 1009.69 1010.33 1011.03 1011.53 1011.95 1012.59 1013.29 1014.11 1015.02 1015.71 1016.44 1017.14 1017.89 1018.51 1019.15 1019.79 1020.42 1021.12 1021.32 1021.78 1022.35 1022.81 1023.17 1023.55 1024.12 1024.75 1025.43 1026.17 1026.90 1027.54 1028.20 1028.77 1029.30 1029.93 1030.50 1031.18 1031.82 1032.32 1032.87
1008.33 1008.65 1009.03 1009.64 1010.08 1010.48 1011.34 1011.79 1012.22 1012.82 1013.32 1013.92 1014.79 1015.64 1016.44 1017.08 1017.56 1018.22 1018.84 1019.46 1019.90 1020.34 1021.05 1021.54 1022.04 1022.48 1022.88 1023.32 1023.80 1024.39 1025.03 1025.75 1026.46 1027.32 1027.88 1028.55 1029.20 1029.90 1030.26 1030.67 1031.21 1031.86 1032.40 1032.94
1009.54 1009.90 1010.38 1010.82 1011.44 1011.74 1012.12 1012.64 1013.10 1013.79 1014.38 1014.59 1015.23 1016.07 1016.70 1017.40 1017.89 1018.41 1019.14 1019.76 1020.36 1020.74 1021.20 1021.71 1022.08 1022.53 1022.91 1023.41 1024.00 1024.65 1025.35 1026.05 1026.73 1027.42 1028.13 1028.82 1029.56 1030.03 1030.52 1030.92 1031.43 1031.99 1032.55 1033.03
1010.77 1011.08 1011.45 1011.76 1012.22 1012.80 1013.26 1013.82 1014.05 1014.60 1015.10 1015.58 1016.08 1016.58 1017.18 1017.82 1018.31 1018.81 1019.12 1019.54 1020.35 1020.92 1021.39 1021.87 1022.28 1022.64 1023.05 1023.55 1024.16 1024.86 1025.57 1026.22 1026.90 1027.54 1028.23 1028.84 1029.40 1030.05 1030.64 1031.09 1031.61 1032.07 1032.53 1033.04
1011.14 1011.63 1012.03 1012.27 1012.66 1013.37 1014.00 1014.64 1015.19 1015.30 1015.79 1016.16 1016.56 1017.00 1017.39 1017.74 1018.15 1018.70 1019.45 1019.92 1020.30 1020.95 1021.41 1021.85 1022.31 1022.81 1023.29 1023.82 1024.42 1025.07 1025.72 1026.35 1026.98 1027.55 1028.15 1028.70 1029.27 1029.85 1030.49 1031.01 1031.56 1032.07 1032.61 1033.10
1011.45 1011.78 1012.25 1012.63 1013.08 1013.69 1014.37 1015.01 1015.41 1015.92 1016.23 1016.61 1016.89 1017.16 1017.51 1018.10 1018.64 1018.86 1019.24 1019.87 1020.44 1020.95 1021.32 1021.83 1022.35 1022.88 1023.47 1024.09 1024.67 1025.28 1025.90 1026.49 1027.03 1027.59 1028.17 1028.66 1029.24 1029.82 1030.44 1030.97 1031.58 1032.09 1032.61 1033.03
1011.72 1012.10 1012.49 1012.88 1013.31 1013.83 1014.35 1014.91 1015.51 1016.20 1016.67 1017.08 1017.41 1017.65 1017.75 1018.02 1018.40 1019.03 1019.39 1019.95 1020.58 1021.16 1021.66 1021.98 1022.46 1023.09 1023.75 1024.35 1024.96 1025.57 1026.15 1026.69 1027.19 1027.71 1028.28 1028.82 1029.35 1029.90 1030.45 1031.01 1031.46 1031.99 1032.58 1032.94
1011.89 1012.26 1012.61 1012.92 1013.32 1013.81 1014.32 1014.87 1015.53 1016.24 1016.81 1017.47 1017.77 1018.02 1018.39 1018.32 1018.68 1019.11 1019.61 1020.08 1020.69 1021.23 1021.78 1022.33 1022.78 1023.32 1023.93 1024.51 1025.12 1025.74 1026.31 1026.90 1027.32 1027.81 1028.31 1028.82 1029.34 1029.90 1030.39 1031.01 1031.46 1031.79 1032.28 1032.80
1012.00 1012.33 1012.69 1013.03 1013.33 1013.74 1014.15 1014.73 1015.46 1016.07 1016.65 1017.22 1017.85 1018.07 1018.45 1018.52 1018.93 1019.37 1019.85 1020.48 1021.00 1021.52 1022.03 1022.53 1023.03 1023.54 1024.09 1024.67 1025.29 1025.86 1026.48 1026.99 1027.36 1027.80 1028.30 1028.79 1029.27 1029.70 1030.16 1030.61 1031.10 1031.60 1032.05 1032.40
Thickness
5491 5487 5505 5526 5540 5548 5551 5542 5536 5557 5544 5548 5542 5539 5540 5535 5528 5520 5514 5509 5504 5494 5482 5473 5463 5452 5446 5443 5437 5432 5422 5410 5402 5398 5392 5385 5379 5375 5364 5356 5350 5347 5343 5341
5473 5470 5468 5482 5490 5506 5504 5509 5512 5520 5525 5541 5545 5532 5531 5524 5518 5514 5510 5514 5506 5487 5477 5469 5458 5445 5435 5435 5427 5420 5408 5397 5389 5386 5379 5373 5367 5361 5349 5342 5339 5334 5330 5330
5469 5460 5455 5464 5490 5500 5509 5507 5503 5495 5526 5534 5532 5531 5528 5525 5531 5528 5527 5509 5499 5489 5473 5463 5451 5439 5431 5425 5415 5405 5395 5384 5378 5375 5367 5362 5357 5346 5336 5332 5328 5323 5321 5321
5455 5459 5448 5494 5506 5507 5501 5507 5509 5514 5525 5528 5530 5531 5528 5529 5531 5534 5532 5524 5504 5479 5463 5452 5444 5433 5423 5414 5404 5396 5384 5375 5369 5363 5358 5353 5344 5332 5327 5323 5318 5314 5314 5314
5436 5449 5473 5498 5500 5478 5479 5492 5502 5508 5514 5522 5518 5513 5513 5503 5514 5524 5521 5509 5485 5474 5460 5445 5432 5425 5411 5400 5393 5384 5373 5362 5359 5355 5349 5343 5330 5322 5319 5316 5310 5308 5307 5308
5437 5426 5441 5479 5484 5478 5486 5463 5495 5500 5500 5509 5500 5486 5493 5478 5483 5489 5486 5480 5469 5452 5439 5428 5419 5411 5397 5390 5383 5370 5361 5352 5349 5345 5339 5331 5321 5316 5312 5307 5303 5302 5301 5302
5423 5428 5440 5470 5477 5474 5459 5465 5486 5496 5492 5492 5478 5468 5461 5455 5454 5460 5463 5457 5447 5437 5425 5416 5409 5398 5387 5381 5368 5359 5350 5344 5343 5337 5331 5323 5316 5312 5307 5301 5296 5294 5294 5296
5417 5417 5411 5469 5474 5469 5454 5476 5482 5475 5462 5452 5446 5443 5440 5438 5435 5436 5437 5432 5426 5419 5410 5402 5393 5387 5379 5368 5356 5347 5342 5339 5334 5328 5321 5316 5312 5307 5302 5297 5291 5287 5287 5289
5429 5427 5455 5464 5469 5466 5462 5464 5469 5459 5442 5436 5432 5430 5426 5422 5422 5418 5413 5409 5407 5405 5397 5384 5380 5378 5367 5354 5346 5338 5336 5329 5325 5317 5312 5308 5305 5301 5296 5292 5288 5286 5285 5281
5437 5445 5451 5452 5455 5458 5459 5458 5457 5445 5437 5428 5424 5415 5412 5408 5401 5398 5398 5397 5392 5388 5380 5373 5368 5363 5356 5344 5336 5332 5328 5321 5315 5307 5302 5299 5297 5295 5291 5288 5284 5282 5279 5276
5416 5432 5436 5443 5447 5447 5451 5444 5437 5427 5424 5420 5412 5405 5402 5398 5394 5389 5384 5382 5381 5378 5370 5362 5356 5351 5343 5336 5330 5325 5319 5313 5306 5300 5295 5291 5288 5287 5284 5282 5281 5277 5273 5274
5411 5432 5431 5433 5438 5436 5443 5435 5427 5420 5410 5407 5403 5398 5391 5388 5382 5378 5374 5371 5367 5363 5357 5351 5344 5338 5332 5327 5323 5317 5312 5304 5297 5292 5287 5283 5282 5278 5277 5276 5274 5272 5270 5270
5421 5428 5427 5430 5433 5439 5435 5428 5416 5409 5405 5401 5393 5388 5381 5377 5374 5371 5364 5360 5355 5350 5345 5339 5333 5329 5324 5319 5315 5310 5305 5298 5291 5286 5281 5278 5275 5273 5271 5269 5268 5265 5265 5264
5418 5418 5417 5420 5418 5432 5431 5418 5407 5397 5390 5385 5380 5378 5374 5370 5365 5360 5354 5349 5340 5334 5328 5325 5321 5317 5316 5310 5306 5301 5296 5291 5286 5280 5276 5272 5269 5265 5262 5259 5253 5251 5254 5253
5410 5412 5413 5413 5413 5413 5410 5400 5391 5382 5377 5373 5370 5367 5364 5359 5354 5348 5338 5332 5325 5321 5316 5315 5310 5304 5306 5302 5296 5290 5286 5282 5280 5276 5272 5268 5264 5260 5256 5251 5246 5242 5241 5241
5406 5406 5401 5398 5398 5399 5394 5387 5382 5374 5370 5364 5361 5356 5352 5347 5339 5331 5324 5319 5315 5311 5308 5305 5302 5297 5296 5292 5286 5281 5278 5276 5274 5270 5266 5262 5259 5255 5250 5246 5240 5235 5231 5228
5393 5391 5390 5387 5387 5387 5385 5378 5376 5370 5362 5356 5351 5343 5338 5332 5324 5318 5313 5309 5306 5301 5298 5298 5291 5286 5284 5281 5279 5274 5271 5268 5266 5263 5260 5258 5254 5251 5246 5240 5233 5227 5222 5220
5396 5393 5391 5387 5381 5377 5372 5368 5364 5359 5356 5349 5340 5332 5326 5320 5313 5306 5301 5297 5294 5290 5288 5286 5282 5277 5274 5273 5272 5269 5265 5262 5259 5256 5253 5249 5246 5242 5236 5231 5224 5219 5214 5209
5385 5383 5379 5375 5371 5366 5362 5357 5353 5349 5344 5338 5331 5322 5315 5308 5303 5297 5293 5290 5286 5282 5277 5276 5274 5270 5267 5266 5265 5262 5258 5255 5251 5247 5243 5238 5234 5230 5225 5220 5214 5208 5204 5198
5368 5366 5363 5359 5356 5356 5348 5341 5342 5339 5334 5326 5317 5310 5303 5298 5294 5289 5285 5281 5279 5277 5271 5268 5266 5264 5262 5259 5257 5253 5249 5245 5242 5235 5231 5227 5221 5216 5212 5209 5204 5198 5192 5185
5353 5349 5346 5344 5338 5336 5334 5329 5334 5328 5314 5317 5311 5301 5295 5288 5284 5280 5275 5272 5267 5265 5263 5260 5259 5256 5254 5251 5248 5244 5239 5235 5231 5226 5221 5216 5210 5206 5201 5197 5192 5186 5180 5175
5334 5334 5333 5332 5329 5326 5326 5318 5318 5314 5310 5307 5302 5296 5290 5282 5276 5269 5265 5264 5258 5256 5254 5252 5250 5248 5245 5243 5239 5235 5230 5226 5221 5216 5211 5206 5202 5197 5191 5187 5182 5177 5171 5165
5336 5332 5326 5329 5329 5323 5317 5310 5303 5306 5302 5298 5295 5291 5286 5281 5275 5267 5256 5251 5248 5246 5245 5243 5241 5238 5235 5233 5230 5225 5221 5217 5212 5209 5204 5199 5194 5190 5184 5179 5173 5167 5160 5154
5333 5331 5326 5324 5322 5318 5314 5309 5305 5298 5293 5291 5287 5284 5281 5274 5266 5263 5257 5249 5241 5238 5238 5235 5233 5231 5227 5224 5220 5216 5212 5208 5205 5200 5196 5191 5186 5181 5175 5169 5162 5157 5150 5144
5324 5322 5320 5319 5318 5314 5311 5306 5301 5294 5290 5286 5282 5278 5275 5271 5265 5259 5253 5247 5240 5232 5229 5229 5227 5224 5220 5216 5212 5208 5204 5200 5196 5192 5186 5181 5176 5171 5165 5158 5153 5147 5141 5135
5321 5319 5317 5317 5314 5310 5306 5302 5296 5289 5284 5277 5273 5268 5265 5264 5260 5254 5248 5243 5237 5231 5226 5221 5220 5216 5212 5208 5204 5199 5195 5190 5186 5181 5176 5172 5166 5161 5156 5150 5144 5138 5132 5126
5317 5315 5313 5311 5309 5306 5303 5298 5292 5286 5279 5273 5267 5264 5261 5259 5254 5249 5243 5237 5231 5226 5220 5216 5213 5208 5204 5200 5195 5190 5186 5182 5178 5173 5168 5163 5158 5152 5147 5141 5135 5130 5124 5118